Theta_e
313 309 310 311 311 312 313 312 312 313 312 312 315 313 316 317 316 315 312 312 313 316 313 314 315 315 315 318 318 316 319 320 316 316 316 314 315 311 309 308 306 306 305 305 305
317 310 311 313 312 313 315 314 315 314 312 312 314 314 316 317 318 314 312 314 313 313 313 313 312 314 314 317 317 316 318 318 315 315 315 314 313 313 310 308 306 304 303 304 303
319 314 312 314 313 313 316 317 316 316 314 312 315 314 314 313 319 314 314 312 312 313 313 312 313 314 317 317 316 315 317 316 315 314 314 314 311 310 308 308 305 303 301 301 301
320 317 314 315 315 315 316 318 318 317 316 313 316 314 315 316 320 314 314 312 312 314 314 315 313 315 316 317 316 314 315 316 315 313 314 314 311 309 307 305 303 301 301 299 297
318 319 316 316 316 316 317 319 320 319 317 313 316 315 315 318 315 314 312 312 312 314 314 313 313 313 315 316 315 315 316 315 314 314 314 313 311 307 303 302 301 301 299 298 297
315 318 318 317 317 317 318 320 321 321 318 314 316 316 319 320 313 312 311 313 312 313 313 312 312 313 314 316 315 315 315 313 314 314 313 313 309 307 304 301 301 300 298 297 298
313 316 318 317 317 318 319 321 321 321 318 314 316 317 318 319 314 311 311 312 311 311 313 311 311 313 314 315 314 313 313 313 313 313 313 312 312 309 303 301 300 299 297 298 298
312 314 317 316 317 318 320 321 320 320 316 315 316 319 319 314 314 312 311 312 311 311 311 310 311 312 313 313 314 314 313 314 314 312 312 310 309 304 302 299 298 296 295 296 296
312 313 316 315 315 318 320 319 319 318 314 316 320 318 319 315 316 314 311 311 311 311 311 310 311 314 313 315 313 314 313 311 313 312 312 310 310 304 303 298 296 294 294 294 293
311 312 315 314 314 316 318 319 318 317 317 317 317 318 315 317 316 313 311 310 311 311 313 312 310 310 310 311 313 310 309 311 312 312 310 311 310 305 301 298 295 294 293 292 292
311 312 315 314 312 313 317 317 311 314 312 316 315 316 317 317 314 313 310 311 312 312 316 315 312 313 313 310 311 311 311 311 311 312 311 310 310 304 301 296 293 293 292 292 292
310 315 315 315 310 312 311 311 311 312 309 312 314 315 316 314 312 312 310 312 313 314 314 312 314 312 310 310 311 312 312 310 309 309 308 307 307 307 300 297 295 293 293 292 292
313 317 318 317 310 310 308 307 309 311 312 313 315 317 316 312 313 312 309 310 313 314 314 313 314 308 308 309 311 310 309 309 310 307 305 305 304 305 299 297 295 294 294 292 292
316 318 319 318 311 309 313 306 310 310 310 313 313 316 311 310 311 309 307 309 313 316 310 308 308 309 310 311 311 309 307 307 307 305 305 303 304 301 298 298 296 295 291 291 291
315 316 319 314 305 311 309 307 307 311 308 312 316 310 311 311 311 312 307 308 312 313 312 314 306 307 308 308 309 309 305 305 305 304 303 303 301 301 298 297 297 293 291 291 291
315 316 318 312 305 308 305 306 309 313 314 318 316 316 314 311 312 310 310 307 307 307 307 309 306 305 305 309 308 306 307 304 303 301 302 302 301 301 297 299 296 292 290 291 291
314 315 317 315 308 306 307 310 308 312 312 317 316 315 315 314 314 312 312 312 314 315 313 309 307 306 307 308 308 307 302 305 305 304 306 301 300 304 300 298 296 291 290 290 290
314 315 316 314 311 303 312 308 314 311 316 314 313 313 315 315 316 311 310 311 309 309 309 311 313 307 305 306 307 307 301 305 306 306 309 300 303 303 295 293 291 291 290 289 289
313 315 314 315 313 304 304 310 312 311 313 316 314 316 317 314 314 309 307 309 310 307 312 311 310 302 300 302 303 304 302 302 303 288 295 300 299 296 294 292 291 290 289 288 289
314 314 313 313 311 309 303 314 313 311 314 314 318 315 317 314 312 309 311 309 310 306 306 307 309 302 298 299 298 300 300 302 302 308 298 301 302 303 294 293 290 289 289 289 290
313 313 311 310 305 307 307 309 311 312 313 314 314 316 314 314 311 311 313 312 306 302 302 303 304 304 299 299 300 295 298 298 299 303 305 300 303 296 295 294 290 289 289 289 288
313 314 309 305 310 306 313 309 311 312 312 312 312 313 313 313 315 314 315 314 302 301 304 301 302 301 301 298 296 297 298 299 302 303 298 301 303 296 295 291 289 289 289 288 289
313 311 308 309 316 314 313 313 312 312 312 311 312 312 312 313 314 314 314 305 301 302 301 299 300 302 309 295 294 294 293 296 296 298 300 301 300 293 291 289 289 288 288 288 288
310 312 309 308 310 311 313 314 314 311 311 311 310 310 312 311 312 313 312 302 301 300 301 300 301 310 315 313 299 299 293 293 296 299 301 300 299 295 291 289 287 287 288 287 287
310 311 309 310 311 311 312 312 313 314 310 311 312 312 311 312 311 312 310 299 298 300 298 298 301 301 305 304 302 303 301 294 294 296 299 301 300 299 297 294 289 287 288 288 287
312 308 306 306 308 310 311 312 312 311 313 312 311 309 310 311 311 311 312 308 307 296 295 297 301 302 304 302 301 299 298 296 296 296 296 296 296 297 295 289 287 288 288 288 287
314 309 310 310 309 311 310 311 311 311 311 312 311 312 311 310 309 308 307 306 308 300 297 299 300 302 308 302 299 301 299 299 298 297 297 295 296 297 294 289 288 288 288 286 285
Wind_Speed
21 22 25 26 27 27 28 27 28 28 23 18 17 6 8 9 11 13 9 11 11 10 8 11 4 6 3 2 1 2 4 2 3 4 3 4 3 6 3 12 8 6 6 8 20
21 22 24 26 26 26 27 27 27 29 24 18 16 5 7 4 4 13 13 13 11 9 6 10 6 10 2 0 4 4 3 1 1 2 2 1 4 4 5 5 5 7 10 20 24
20 21 23 24 26 25 26 26 27 29 25 20 16 5 6 3 3 4 14 12 8 7 6 8 8 2 3 1 1 3 3 2 3 4 3 2 5 4 10 5 2 7 6 11 22
19 21 22 24 25 25 25 25 26 28 25 19 15 4 5 3 2 3 9 10 7 8 7 7 5 3 3 1 0 2 6 2 3 4 3 1 4 4 5 5 8 9 10 14 11
17 20 21 23 24 24 24 24 25 27 25 18 13 3 3 3 3 3 6 7 7 5 10 5 6 4 2 4 2 3 3 2 4 2 0 3 6 8 6 8 9 13 13 10 11
16 17 20 22 23 24 24 23 24 27 23 14 9 1 2 1 3 4 5 2 9 9 6 7 2 2 4 3 2 3 4 7 2 3 4 4 7 8 5 5 9 9 9 8 10
15 17 18 20 22 23 24 23 24 27 18 11 5 1 3 2 3 5 6 2 8 6 3 2 2 2 5 4 2 0 3 3 4 4 4 4 2 5 11 7 9 8 7 7 8
13 16 18 19 21 22 23 24 25 21 12 9 2 1 1 5 2 4 6 1 5 4 2 2 2 1 0 5 4 1 2 1 4 6 4 3 5 6 10 11 9 8 6 6 4
13 14 16 18 20 21 22 24 22 18 5 8 1 1 1 4 2 3 4 0 4 1 1 1 2 0 3 2 4 4 3 3 4 6 2 3 5 10 9 11 9 8 7 6 4
13 14 15 17 19 20 20 23 15 6 5 2 1 3 2 3 2 4 3 2 0 1 2 1 2 2 4 3 3 4 4 4 4 3 6 6 6 8 11 10 9 8 7 6 5
13 14 14 15 18 18 19 10 9 5 8 5 4 3 1 4 4 2 2 2 2 2 2 3 3 5 5 1 1 3 5 7 8 4 5 7 6 13 11 7 10 9 8 6 6
13 13 12 14 16 13 9 7 4 1 8 4 2 3 4 1 2 2 5 2 2 1 3 6 6 6 6 5 5 6 7 8 7 4 0 5 10 8 18 14 11 10 8 7 4
17 11 13 12 12 5 7 5 2 2 2 4 3 3 2 3 2 3 3 2 2 2 2 4 4 5 4 2 3 5 6 4 7 5 6 7 8 7 5 6 8 7 6 6 6
16 10 12 13 2 3 1 4 4 3 4 5 2 2 2 2 2 1 1 1 1 2 2 6 2 4 3 5 6 5 2 2 5 4 4 2 9 4 9 12 12 9 8 7 6
12 10 10 9 6 1 1 2 4 2 4 4 2 2 2 3 1 1 1 2 4 5 5 9 4 5 5 5 5 6 2 4 5 9 3 6 5 5 12 12 12 8 7 6 6
11 11 9 5 4 3 1 3 3 5 7 3 4 3 1 3 2 3 2 2 2 1 3 9 2 5 7 2 3 2 3 5 4 2 3 9 11 4 7 14 14 8 8 7 5
13 11 10 7 2 3 5 2 4 4 3 5 4 4 3 4 4 4 3 0 1 5 4 5 5 1 3 2 3 2 4 4 5 2 7 2 1 13 7 7 18 13 9 7 5
12 12 11 10 6 5 3 4 5 7 7 2 3 3 6 7 4 3 4 2 5 3 1 3 6 6 4 4 6 6 7 4 7 4 10 6 7 5 2 11 13 10 9 7 5
13 12 12 14 11 10 4 4 10 9 5 8 2 3 4 4 3 4 6 6 7 8 8 3 5 2 4 1 4 3 4 2 1 2 2 5 5 3 2 7 7 9 8 7 6
9 6 14 11 11 7 3 15 8 8 5 4 9 8 8 6 6 6 7 5 5 5 3 4 7 0 2 2 3 2 3 2 1 4 7 6 8 9 11 13 8 8 8 5 0
8 2 8 19 17 2 8 10 13 9 5 8 8 6 6 6 9 7 7 4 6 4 4 5 5 2 4 7 9 1 3 4 2 5 5 2 6 4 17 15 11 8 7 5 4
5 3 13 22 3 4 13 9 6 9 16 18 7 10 10 7 6 8 11 10 9 9 10 7 5 5 11 4 2 4 10 10 5 6 5 11 20 6 12 11 10 9 8 6 6
3 4 12 10 8 10 5 9 15 8 14 6 9 10 8 9 6 12 14 2 11 11 10 8 4 2 7 3 3 6 5 6 3 0 20 11 10 2 10 9 8 9 8 6 3
3 4 3 5 6 6 11 15 15 11 25 9 8 8 5 7 10 6 7 3 2 4 7 8 6 9 18 20 4 8 8 9 14 10 23 25 34 12 9 10 8 8 7 7 6
5 7 8 7 12 18 12 7 19 14 8 19 13 22 13 12 8 14 6 1 2 5 5 7 10 8 19 15 5 19 15 15 19 26 18 37 24 26 18 16 13 10 7 3 1
7 5 3 4 8 22 27 29 25 9 14 19 22 13 24 27 20 12 16 8 10 4 7 4 6 4 15 8 15 25 18 20 25 30 28 32 35 26 11 6 8 7 6 3 2
21 8 7 10 10 13 21 28 27 23 14 13 22 20 20 22 19 17 7 4 8 13 14 11 6 4 15 0 3 14 22 29 24 24 24 24 34 21 13 9 9 7 4 4 3
Wind_Direction
16 17 16 16 15 14 12 14 16 16 13 19 25 75 90 86 67 57 45 342 332 340 337 338 324 298 313 313 48 72 65 318 359 61 119 353 105 20 54 82 43 60 86 88 56
12 11 12 12 12 11 8 8 11 11 11 14 16 90 129 87 17 51 5 1 360 1 9 4 349 346 350 153 359 73 88 264 14 70 106 67 112 119 74 85 66 82 64 71 58
7 6 7 8 7 9 6 3 4 6 8 5 9 48 199 262 54 340 358 4 8 13 359 314 302 287 330 59 15 345 208 333 55 110 60 8 52 7 131 56 54 131 101 68 60
4 3 2 3 4 4 3 358 357 1 359 1 6 60 105 109 88 312 354 9 32 41 19 7 350 29 328 250 117 8 269 53 357 56 56 1 85 68 39 120 148 119 108 83 66
1 360 358 358 359 359 359 354 351 353 352 356 2 94 119 66 189 330 346 13 34 52 41 17 36 355 351 334 349 179 270 317 311 42 108 349 125 126 112 141 113 93 84 80 68
352 357 355 354 355 354 353 351 345 343 344 347 356 105 135 298 161 355 349 345 34 46 48 38 32 306 275 260 141 317 313 288 294 178 145 133 140 90 239 137 100 97 97 95 90
343 348 352 350 350 350 348 345 339 333 339 336 345 318 77 184 163 16 15 42 30 41 84 61 352 51 327 321 18 25 318 7 213 201 221 145 215 156 147 146 123 116 112 109 101
336 342 347 347 347 346 344 339 333 327 335 331 318 122 152 152 170 6 16 61 23 359 48 53 11 288 204 320 339 316 149 129 254 165 253 104 262 166 168 139 144 131 121 111 103
327 337 343 345 344 343 342 338 324 322 316 331 248 95 234 160 213 314 359 281 320 282 28 9 45 191 26 48 357 1 283 294 328 214 155 163 243 174 179 154 153 153 143 132 97
322 330 339 341 341 343 342 337 320 342 350 333 264 31 161 191 258 289 297 317 20 339 37 343 62 45 19 74 251 277 303 301 269 237 202 200 243 169 180 159 164 159 152 143 112
313 322 334 337 338 343 347 352 12 346 16 238 264 248 53 302 279 216 302 294 132 44 354 268 66 259 212 140 223 255 258 254 267 247 187 231 248 190 184 170 170 171 166 156 112
303 312 327 332 335 341 7 76 121 251 305 298 232 289 249 169 344 246 329 159 109 242 326 10 248 198 170 204 226 235 263 273 282 168 338 257 253 245 185 186 173 167 172 157 130
304 304 325 326 328 345 54 89 139 147 318 302 209 234 192 160 223 218 339 140 159 171 177 190 222 162 177 207 239 252 231 253 255 328 300 283 272 207 193 159 172 173 164 149 143
291 307 326 325 268 353 59 24 128 141 46 270 241 241 167 148 287 49 16 133 217 255 198 238 217 164 188 244 176 264 176 229 280 350 248 126 290 198 175 184 184 185 165 153 133
281 302 320 329 301 234 179 95 123 113 4 255 205 163 112 163 130 216 356 40 183 196 108 247 193 204 216 225 156 242 43 249 254 249 357 237 254 256 163 205 196 178 171 152 147
270 284 304 287 277 234 198 137 115 54 250 234 153 189 149 190 217 141 36 52 134 25 247 248 16 173 204 135 184 16 306 265 222 169 260 240 207 234 180 218 175 169 164 150 134
258 271 280 277 236 192 166 105 39 161 268 208 204 178 179 200 203 169 160 320 164 336 305 333 218 95 122 127 17 74 49 320 339 338 238 209 286 245 221 198 172 160 160 150 134
246 256 266 257 251 209 155 60 191 226 240 130 148 149 192 165 215 145 122 251 247 169 325 229 302 175 173 189 185 191 165 170 260 243 284 335 256 245 126 116 127 140 146 145 158
234 244 251 254 232 189 97 194 196 201 217 160 89 183 236 214 189 144 205 213 218 169 185 239 258 95 37 29 145 191 186 166 278 135 4 242 275 344 158 133 138 144 147 167 187
223 227 235 244 201 155 113 224 219 216 142 156 184 180 205 200 175 181 194 204 205 182 160 198 291 188 158 56 317 211 181 71 77 289 275 268 264 237 193 198 179 167 164 172 181
211 250 205 195 160 126 207 217 225 236 152 175 205 228 218 189 190 199 222 249 165 133 112 151 168 211 126 199 188 137 235 230 190 173 233 293 248 233 195 185 183 175 167 187 214
203 229 180 160 166 209 222 200 226 203 232 244 205 218 226 170 246 232 227 203 163 151 163 206 172 225 224 213 206 175 202 191 210 228 238 252 271 182 185 162 163 171 182 197 201
224 206 176 187 216 219 246 220 232 177 220 205 222 215 199 202 246 225 234 154 158 155 171 181 214 335 294 15 342 220 206 213 259 289 242 247 259 87 131 147 173 176 197 190 201
162 216 165 208 235 218 221 242 225 213 230 233 232 183 164 224 223 257 199 228 194 147 151 148 204 198 254 268 134 234 193 204 215 244 253 241 258 238 186 177 193 195 190 195 197
195 223 186 204 215 224 216 228 220 225 216 204 238 224 206 234 205 228 206 146 306 178 174 168 242 198 256 274 270 263 248 216 218 235 233 258 246 257 244 219 195 188 173 138 36
188 171 181 196 179 203 221 233 233 219 201 218 225 201 218 229 218 231 219 185 205 172 168 180 252 145 271 237 246 259 249 244 238 243 245 252 267 258 269 134 154 161 168 139 84
209 193 191 208 194 195 216 227 228 217 247 230 213 225 225 225 227 240 215 198 198 170 186 169 192 158 258 228 340 274 238 229 241 242 231 242 246 275 248 174 169 164 134 114 63